Regional Weather Roundup
Issued by NWS

Home | Current Version | Previous Version | Graphics & Text | Print | Product List | Glossary On
Versions: 1 2 3 4 5 6 7 8 9 10 11 12 13 14 15 16 17 18 19 20 21 22 23 24 25 26 27 28 29 30 31 32 33 34 35 36 37 38 39 40 41 42 43 44 45 46 47 48 49 50
000
ASUS45 KSLC 292110
RWRUT

UTAH REGIONAL WEATHER ROUNDUP
NATIONAL WEATHER SERVICE SALT LAKE CITY UT
300 PM MDT SUN MAR 29 2015

UTZ001>011-023>025-292200-

NORTHERN UTAH

CITY           SKY/WX    TMP DP  RH WIND       PRES   REMARKS
BRIGHAM CITY   SUNNY     61  10  13 SW6       30.28F
HILL AFB       SUNNY     61  18  19 W6        30.27F
LOGAN          SUNNY     62  21  20 CALM      30.26F
OGDEN          SUNNY     61  18  18 NW6       30.26F
PROVO AIRPORT  SUNNY     61  28  29 VRB5      30.24F
SALT LAKE CITY MOSUNNY   64  25  22 NW12      30.25F
VERNAL         SUNNY     64  13  13 S7        30.22F
WENDOVER       SUNNY     59  18  20 E5        30.27F
HEBER CITY     SUNNY     68  18  14 SW14      30.23F
WEST JORDAN    SUNNY     64  28  25 N12       30.25F

$$

UTZ012>022-026-027-292200-

SOUTHERN/CENTRAL UTAH

CITY           SKY/WX    TMP DP  RH WIND       PRES   REMARKS
BLANDING       SUNNY     72  18  13 S13       30.28F
BRYCE CANYON   PTSUNNY   63  22  20 SW9G22    30.32F
CEDAR CITY     MOSUNNY   69  18  14 CALM      30.22F
DELTA          SUNNY     67  10  10 NW6       30.24F
HANKSVILLE     SUNNY     75  12   9 CALM      30.19F
MILFORD        MOSUNNY   69  18  14 NE8       30.22F
MOAB/CYNLANDS  SUNNY     73   8   8 VRB3      30.16F
PRICE          SUNNY     70  11  10 S8        30.22F
ST GEORGE      CLEAR     79  27  14 CALM      30.11F
KANAB          SUNNY     77  21  12 SW6       30.20F

$$

REGIONAL REPORTS     COLORADO/ARIZONA

CITY           SKY/WX    TMP DP  RH WIND       PRES   REMARKS
CRAIG, CO      SUNNY     63  14  15 W9G20     30.24F
GRAND JUNCTION SUNNY     71   6   8 W6        30.16F
RIFLE          SUNNY     70   9   9 VRB5      30.19F
MONTROSE       SUNNY     71   2   6 N9        30.21F
CORTEZ         SUNNY     73  13  10 VRB3G20   30.20F
PAGE, AZ       SUNNY     78  19  11 NE9       30.15F
GRAND CANYON   SUNNY     68  18  14 VRB3      30.27F
KINGMAN        PTSUNNY   83  21  10 VRB7G16   30.10F
FLAGSTAFF      MOSUNNY   68  15  13 SW15G22   30.28F

$$

REGIONAL REPORTS    NEVADA/IDAHO/WYOMING

CITY           SKY/WX    TMP DP  RH WIND       PRES   REMARKS
LAS VEGAS, NV  MOSUNNY   86  20   9 VRB5      30.01F
ELY            MOSUNNY   71  14  11 N7        30.23F
ELKO           SUNNY     67   4   8 N7        30.23F
POCATELLO, ID  SUNNY     60  20  21 W14G21    30.27F
BURLEY         SUNNY     60  20  21 VRB3      30.26F
EVANSTON, WY   SUNNY     59   9  13 W18       30.28F
ROCK SPRINGS   SUNNY     57   8  14 W9G20     30.25F
KEMMERER       SUNNY     55   9  15 W17G23    30.30S

$$


USA.gov is the U.S. government's official web portal to all federal, state and local government web resources and services.